Regional Weather Roundup
Issued by NWS

Home | Current Version | Previous Version | Graphics & Text | Print | Product List | Glossary On
Versions: 1 2 3 4 5 6 7 8 9 10 11 12 13 14 15 16 17 18 19 20 21 22 23 24 25 26 27 28 29 30 31 32 33 34 35 36 37 38 39 40 41 42 43 44 45 46 47 48 49 50
000
ASUS43 KLOT 250903
RWRIL

ILLINOIS REGIONAL WEATHER ROUNDUP
NATIONAL WEATHER SERVICE CHICAGO/ROMEOVILLE IL
300 AM CST SAT NOV 25 2017

NOTE: "FAIR" INDICATES FEW OR NO CLOUDS BELOW 12,000 FEET WITH NO
SIGNIFICANT WEATHER AND/OR OBSTRUCTIONS TO VISIBILITY.

* THESE STATIONS ARE NOT UNDER NWS QUALITY CONTROL. THEY ALSO MAY NOT
  REPORT WEATHER SUCH AS PRECIPITATION OR FOG.

ILZ001-002-007-009-015-016-024-251000-
NORTHWEST ILLINOIS

CITY           SKY/WX    TMP DP  RH WIND       PRES   REMARKS
MOLINE         CLEAR     42  34  73 W8        29.85R
STERLING*      PTCLDY    40  37  89 W8        29.82R
SAVANNA*       CLEAR     43  35  73 NW7       29.82S
$$

ILZ003-004-008-010-011-017-018-251000-
NORTH CENTRAL ILLINOIS

CITY           SKY/WX    TMP DP  RH WIND       PRES   REMARKS
ROCKFORD       PTCLDY    42  37  82 W10       29.79R
FREEPORT*      PTCLDY    41  35  80 W9        29.81R
ROCHELLE*      CLEAR     43  39  84 NW12      29.79R
DE KALB*       CLEAR     43  38  84 NW13      29.77R
PERU*          CLEAR     43  38  85 W14G21    29.81R
$$

ILZ005-006-012>014-019>023-251000-
NORTHEAST ILLINOIS

CITY           SKY/WX    TMP DP  RH WIND       PRES   REMARKS
CHICAGO-OHARE  PTCLDY    48  37  65 NW17      29.72R
CHICAGO-MIDWAY NOT AVBL
AURORA         CLEAR     41  37  86 W12       29.77R
LANSING*       CLEAR     47  43  86 NW7       29.72R
JOLIET*        CLEAR     49  41  74 NW9       29.77R
WAUKEGAN       CLEAR     46  36  68 NW12G21   29.71R
DUPAGE AIRPORT CLEAR     46  39  76 NW12      29.74R
KANKAKEE*      CLEAR     44  40  86 W10       29.76R
WHEELING       PTCLDY    49  39  68 NW15      29.74R
MORRIS*        CLEAR     44  40  85 NW12      29.77R
ROMEOVILLE*    CLEAR     46  41  81 NW10      29.75R
NORTHERLY ISL    N/A     50  39  66 W13         N/A
$$

LMZ740>746-251000-
SOUTHERN LAKE MICHIGAN

STATION/POSITION SKY/WX   TEMP    WIND        PRES    VSBY  WAVE
                          AIR SEA DIR/SP/G                  HT/PER
                          (F)     (DEG/KT/KT) (MB)    (MI)  (FT/S)
SOUTHERN BUOY              48 47  340/ 19/ 21 1004.0          3/ 6
HARRISON CRIB              51     310/ 18/ 20   N/A
BURNHAM HARBOR             50     310/  9/ 18   N/A
CALUMET HARBOR             52     300/ 10/ 17 1005.3R
BURNS HARBOR               49     320/ 12/ 15 1006.4R
MICHIGAN CITY              49     300/ 15/ 16   N/A
$$

ILZ025>027-034>036-040-047-049-050-058-095>099-251000-
WEST-CENTRAL ILLINOIS

CITY           SKY/WX    TMP DP  RH WIND       PRES   REMARKS
QUINCY         CLEAR     44  36  73 NW13      29.90R
GALESBURG*     CLEAR     37  35  89 W6        29.87R WCI  33
MACOMB*        CLEAR     42  36  80 NW12      29.90R
JACKSONVILLE*  CLEAR     46  37  71 MISG      29.87R
PITTSFIELD*    CLEAR     47  37  66 NW10      29.91R
$$

ILZ028>032-037-038-041>044-048-051>054-059>061-251000-
CENTRAL ILLINOIS

CITY           SKY/WX    TMP DP  RH WIND       PRES   REMARKS
PONTIAC        CLEAR     46  45  97 NW15      29.81R
BLOOMINGTON    CLEAR     45  41  86 NW14      29.83R
DECATUR        CLOUDY    49  42  77 NW16G24   29.82R
PEORIA         CLEAR     45  38  76 NW10G20   29.85R
LACON*         CLEAR     44  38  81 NW12G20   29.83R
LINCOLN*       CLEAR     47  41  82 NW6       29.84R
SPRINGFIELD    CLEAR     49  41  74 NW14      29.86R
TAYLORVILLE    CLEAR     49  41  74 NW14G22   29.84R
$$

ILZ033-039-045-046-055>057-062-063-251000-
EAST-CENTRAL ILLINOIS

CITY           SKY/WX    TMP DP  RH WIND       PRES   REMARKS
CHAMPAIGN      CLOUDY    45  41  86 NW10      29.79R
DANVILLE*      CLOUDY    46  40  81 W10       29.73R
RANTOUL*       CLOUDY    49  44  84 NW16      29.78R
MATTOON        MOCLDY    48  41  76 NW16      29.79R
PARIS*         PTCLDY    46  39  77 W12       29.78R
$$

ILZ079-100>102-251000-
SOUTHWEST ILLINOIS

CITY           SKY/WX    TMP DP  RH WIND       PRES   REMARKS
ALTON          PTCLDY    52  42  70 NW8       29.88R
BELLEVILLE     MOCLDY    55  42  62 NW14      29.85R
CAHOKIA*       MOCLDY    54  41  61 NW13      29.87R
SPARTA*        PTCLDY    56  40  56 NW6       29.87R
$$

ILZ064>066-069>071-074>076-080>082-084>086-088>090-092>094-251000-
SOUTH-CENTRAL ILLINOIS

CITY           SKY/WX    TMP DP  RH WIND       PRES   REMARKS
CARBONDALE     CLOUDY    50  37  61 W8        29.84R
CAIRO*         MOCLDY    51  37  57 SW10      29.86R
EFFINGHAM*     CLOUDY    46  39  77 W8        29.82R
MARION         MOCLDY    54  37  53 SW6       29.83S
MT. VERNON     PTCLDY    51  38  60 W3        29.83R
CENTRALIA*     PTCLDY    53  41  64 NW8       29.83R
SALEM*         CLOUDY    53  39  60 NW8       29.83R
METROPOLIS*    CLOUDY    54  36  51 SW7       29.85S
$$

ILZ067-068-072-073-078-083-087-091-251000-
SOUTHEAST ILLINOIS

CITY           SKY/WX    TMP DP  RH WIND       PRES   REMARKS
LAWRENCEVILLE  PTCLDY    48  36  63 W6        29.80R
FLORA*         PTCLDY    53  38  57 W9        29.82R
FAIRFIELD*     CLOUDY    50  38  62 CALM      29.81R
HARRISBURG*    MOCLDY    52  37  57 W7        29.83R
ROBINSON*      MOCLDY    48  37  64 W10       29.80R
CARMI*         CLOUDY    52  37  56 SW10      29.81R
$$

ABBREVIATIONS USED IN REMARKS
   TC - TEMPERATURE IN CELSIUS
  WCI - WIND CHILL INDEX
   HX - HEAT INDEX
  VSB - VISIBILITY
$$





USA.gov is the U.S. government's official web portal to all federal, state and local government web resources and services.